Location: Unspecified
(0.0000°N, 0.0000°E)
Time: 02:36:41
(UTC+02:00)

Meteor 2-8 Rocket - Visible Passes

Search period start: 22 April 2018 00:00
Search period end: 02 May 2018 00:00
Orbit: 936 x 958 km, 82.5° (Epoch: 21 April)

Date Brightness Start Highest point End Pass type
(mag) Time Alt. Az. Time Alt. Az. Time Alt. Az.
22 Apr 4.5 20:59:47 10° N 21:05:56 83° W 21:12:07 10° S visible
23 Apr 5.5 21:16:59 10° NNW 21:22:49 46° W 21:28:40 10° SSW visible
24 Apr 6.6 21:34:45 10° NW 21:39:41 26° W 21:44:38 10° SSW visible
25 Apr 7.3 21:53:42 10° WNW 21:56:34 14° W 21:59:27 10° WSW visible
26 Apr 7.3 07:24:50 10° SE 07:28:17 16° E 07:31:43 10° ENE visible
26 Apr 4.5 20:22:46 10° N 20:28:56 80° E 20:35:06 10° S visible
27 Apr 5.2 20:39:47 10° NNW 20:45:48 57° W 20:51:50 10° S visible
28 Apr 6.3 20:57:20 10° NNW 21:02:40 32° W 21:08:02 10° SSW visible
29 Apr 7.2 21:15:43 10° NW 21:19:33 17° W 21:23:25 10° SW visible
30 Apr 7.5 06:49:02 10° ESE 06:51:15 12° E 06:53:28 10° ENE visible
01 May 6.9 07:03:27 10° SE 07:08:08 23° E 07:12:47 10° NE visible
